Home > Weather > Bergen > Past weeks

Flag for Norway Past Weather in Bergen, Norway — Yesterday and Last 2 Weeks

Now
54 °F

Sprinkles. Overcast.


Feels Like: 53 °F
Forecast: 50 / 64 °F
Wind: 5 mph from Southeast

Location: Bergen / Florida

Current Time: Jul 31, 2016 at 11:44:30 AM

Latest Report: Jul 31, 2016 at 11:00 AM


Visibility: 9 mi

Pressure: 29.68 "Hg

Humidity: 83%

Dew Point: 49 °F

Location of BergenLocation

Past Weather in Bergen — Graph

°F

Bergen Temperature Yesterday

Maximum temperature yesterday: 62 °F (at 4:00 PM)
Minimum temperature yesterday: 54 °F (at 3:00 AM)
Average temperature yesterday: 57 °F

High & Low Weather Summary for the Past Weeks

 TemperatureHumidityPressure
High81 °F (Jul 21, 11:00 AM)91% (Jul 20, 8:00 AM)30.14 "Hg (Jul 20, 8:00 AM)
Low51 °F (Jul 17, 4:00 AM)35% (Jul 21, 10:00 AM)29.68 "Hg (Jul 31, 9:00 AM)
Average61 °F78%29.92 "Hg
* Reported Jul 16 10:00 AM — Jul 31 10:00 AM, Bergen, Weather by CustomWeather, © 2016

Note: Actual official high and low records may vary slightly from our data, if they occured in-between our weather recording intervals... More about our weather records

Advertising

Bergen Weather History for the Previous 24 Hours

Scroll right to see more
 ConditionsComfort  
Time TempWeatherWind HumidityBarometerVisibility
10:00 AM
Sun, Jul 31
56 °FCool.6 mph80%29.68 "HgN/A
9:00 AM55 °FCool.3 mph84%29.68 "HgN/A
8:00 AM55 °FPartly sunny.5 mph86%29.68 "Hg19 mi
7:00 AM54 °FCool.2 mph87%29.68 "HgN/A
6:00 AM54 °FCool.5 mph87%29.69 "HgN/A
5:00 AM53 °FCool.3 mph87%29.70 "HgN/A
4:00 AM54 °FCool.2 mph87%29.70 "HgN/A
3:00 AM54 °FCool.2 mph87%29.71 "HgN/A
2:00 AM54 °FCool.2 mph86%29.71 "HgN/A
1:00 AM54 °FCool.2 mph86%29.72 "HgN/A
12:00 AM55 °FCool.2 mph84%29.72 "HgN/A
11:00 PM
Sat, Jul 30
55 °FOvercast.2 mph83%29.73 "Hg19 mi
10:00 PM56 °FCool.2 mph81%29.72 "HgN/A
9:00 PM57 °FCool.3 mph77%29.72 "HgN/A
8:00 PM59 °FOvercast.1 mph68%29.72 "Hg25 mi
7:00 PM60 °FCool.2 mph66%29.73 "HgN/A
6:00 PM60 °FCool.3 mph73%29.73 "HgN/A
5:00 PM61 °FOvercast.2 mph62%29.73 "Hg25 mi
4:00 PM62 °FCool.5 mph61%29.72 "HgN/A
3:00 PM61 °FCool.3 mph66%29.72 "HgN/A
2:00 PM61 °FOvercast.2 mph66%29.72 "Hg19 mi
1:00 PM60 °FCool.5 mph70%29.71 "HgN/A
12:00 PM58 °FCool.1 mph76%29.70 "HgN/A
11:00 AM60 °FOvercast.3 mph79%29.70 "Hg19 mi
Weather by CustomWeather, © 2016

See weather overviewHow to use our weather pages